Time,TemperatureF,DewpointF,PressureIn,WindDirection,WindDirectionDegrees,WindSpeedMPH,WindSpeedGustMPH,Humidity,HourlyPrecipIn,Conditions,Clouds,dailyrainin,SoftwareType,DateUTC
2013-01-24 00:03:00,59.0,-99.9,30.34,SW,219,5.0,8.0,-999,-99.99,,,-99.99,,2013-01-24 06:03:00,
2013-01-24 00:12:00,60.0,-99.9,30.33,SSW,212,7.0,11.0,-999,-99.99,,,-99.99,,2013-01-24 06:12:00,
2013-01-24 00:22:00,59.0,-99.9,30.33,SW,223,6.0,10.0,-999,-99.99,,,-99.99,,2013-01-24 06:22:00,
2013-01-24 00:33:00,59.0,-99.9,30.33,SW,216,5.0,8.0,-999,-99.99,,,-99.99,,2013-01-24 06:33:00,
2013-01-24 00:42:00,59.0,-99.9,30.33,SSW,210,6.0,9.0,-999,-99.99,,,-99.99,,2013-01-24 06:42:00,
2013-01-24 00:53:00,59.0,-99.9,30.33,SW,226,6.0,9.0,-999,-99.99,,,-99.99,,2013-01-24 06:53:00,
2013-01-24 01:03:00,59.0,-99.9,30.33,SW,231,5.0,8.0,-999,-99.99,,,-99.99,,2013-01-24 07:03:00,
2013-01-24 01:12:00,58.0,-99.9,30.33,WSW,240,4.0,6.0,-999,-99.99,,,-99.99,,2013-01-24 07:12:00,
2013-01-24 01:23:00,58.0,-99.9,30.33,WSW,243,4.0,7.0,-999,-99.99,,,-99.99,,2013-01-24 07:23:00,
2013-01-24 01:34:00,59.0,-99.9,30.32,SW,220,5.0,9.0,-999,-99.99,,,-99.99,,2013-01-24 07:34:00,
2013-01-24 01:43:00,59.0,-99.9,30.32,WSW,237,5.0,6.0,-999,-99.99,,,-99.99,,2013-01-24 07:43:00,
2013-01-24 01:53:00,59.0,-99.9,30.33,WSW,249,5.0,7.0,-999,-99.99,,,-99.99,,2013-01-24 07:53:00,
2013-01-24 02:03:00,59.0,-99.9,30.33,WSW,249,6.0,8.0,-999,-99.99,,,-99.99,,2013-01-24 08:03:00,
2013-01-24 02:13:00,59.0,-99.9,30.33,WSW,242,6.0,7.0,-999,-99.99,,,-99.99,,2013-01-24 08:13:00,
2013-01-24 02:23:00,58.0,-99.9,30.32,WSW,242,5.0,8.0,-999,-99.99,,,-99.99,,2013-01-24 08:23:00,
2013-01-24 02:33:00,59.0,-99.9,30.32,WSW,245,6.0,9.0,-999,-99.99,,,-99.99,,2013-01-24 08:33:00,
2013-01-24 02:43:00,59.0,-99.9,30.32,WSW,244,5.0,9.0,-999,-99.99,,,-99.99,,2013-01-24 08:43:00,
2013-01-24 02:53:00,59.0,-99.9,30.32,WSW,245,5.0,8.0,-999,-99.99,,,-99.99,,2013-01-24 08:53:00,
2013-01-24 03:03:00,58.0,-99.9,30.31,WSW,249,5.0,6.0,-999,-99.99,,,-99.99,,2013-01-24 09:03:00,
2013-01-24 03:13:00,58.0,-99.9,30.31,WSW,243,5.0,6.0,-999,-99.99,,,-99.99,,2013-01-24 09:13:00,
2013-01-24 03:23:00,59.0,-99.9,30.32,WSW,254,5.0,8.0,-999,-99.99,,,-99.99,,2013-01-24 09:23:00,
2013-01-24 03:34:00,59.0,-99.9,30.31,WSW,244,5.0,6.0,-999,-99.99,,,-99.99,,2013-01-24 09:34:00,
2013-01-24 03:43:00,59.0,-99.9,30.31,WSW,245,5.0,6.0,-999,-99.99,,,-99.99,,2013-01-24 09:43:00,
2013-01-24 03:53:00,59.0,-99.9,30.31,WSW,243,5.0,8.0,-999,-99.99,,,-99.99,,2013-01-24 09:53:00,
2013-01-24 04:03:00,59.0,-99.9,30.31,WSW,247,4.0,7.0,-999,-99.99,,,-99.99,,2013-01-24 10:03:00,
2013-01-24 04:13:00,59.0,-99.9,30.31,WSW,247,5.0,6.0,-999,-99.99,,,-99.99,,2013-01-24 10:13:00,
2013-01-24 04:23:00,59.0,-99.9,30.31,WSW,248,4.0,8.0,-999,-99.99,,,-99.99,,2013-01-24 10:23:00,
2013-01-24 04:34:00,59.0,-99.9,30.32,WSW,254,6.0,9.0,-999,-99.99,,,-99.99,,2013-01-24 10:34:00,
2013-01-24 04:44:00,59.0,-99.9,30.32,WSW,257,6.0,8.0,-999,-99.99,,,-99.99,,2013-01-24 10:44:00,
2013-01-24 04:53:00,59.0,-99.9,30.32,West,266,6.0,8.0,-999,-99.99,,,-99.99,,2013-01-24 10:53:00,
2013-01-24 05:03:00,58.0,-99.9,30.32,West,268,5.0,7.0,-999,-99.99,,,-99.99,,2013-01-24 11:03:00,
2013-01-24 05:13:00,58.0,-99.9,30.33,West,270,5.0,7.0,-999,-99.99,,,-99.99,,2013-01-24 11:13:00,
2013-01-24 05:23:00,59.0,-99.9,30.33,WSW,255,7.0,9.0,-999,-99.99,,,-99.99,,2013-01-24 11:23:00,
2013-01-24 05:34:00,59.0,-99.9,30.33,WSW,252,7.0,10.0,-999,-99.99,,,-99.99,,2013-01-24 11:34:00,
2013-01-24 05:43:00,59.0,-99.9,30.33,WSW,250,5.0,10.0,-999,-99.99,,,-99.99,,2013-01-24 11:43:00,
2013-01-24 05:53:00,59.0,-99.9,30.32,WSW,246,7.0,9.0,-999,-99.99,,,-99.99,,2013-01-24 11:53:00,
2013-01-24 06:03:00,59.0,-99.9,30.32,WSW,244,6.0,8.0,-999,-99.99,,,-99.99,,2013-01-24 12:03:00,
2013-01-24 06:12:00,59.0,-99.9,30.32,WSW,243,6.0,8.0,-999,-99.99,,,-99.99,,2013-01-24 12:12:00,
2013-01-24 06:23:00,59.0,-99.9,30.33,WSW,253,6.0,10.0,-999,-99.99,,,-99.99,,2013-01-24 12:23:00,
2013-01-24 06:33:00,59.0,-99.9,30.34,WSW,255,7.0,10.0,-999,-99.99,,,-99.99,,2013-01-24 12:33:00,
2013-01-24 06:43:00,59.0,-99.9,30.34,WSW,256,7.0,10.0,-999,-99.99,,,-99.99,,2013-01-24 12:43:00,
2013-01-24 06:53:00,59.0,-99.9,30.34,WSW,253,7.0,12.0,-999,-99.99,,,-99.99,,2013-01-24 12:53:00,
2013-01-24 07:03:00,59.0,-99.9,30.34,WSW,253,7.0,10.0,-999,-99.99,,,-99.99,,2013-01-24 13:03:00,
2013-01-24 07:13:00,60.0,-99.9,30.34,WSW,256,7.0,10.0,-999,-99.99,,,-99.99,,2013-01-24 13:13:00,
2013-01-24 07:23:00,60.0,-99.9,30.34,WSW,251,8.0,12.0,-999,-99.99,,,-99.99,,2013-01-24 13:23:00,
2013-01-24 07:33:00,60.0,-99.9,30.34,WSW,256,8.0,11.0,-999,-99.99,,,-99.99,,2013-01-24 13:33:00,
2013-01-24 07:43:00,60.0,-99.9,30.35,WSW,256,7.0,11.0,-999,-99.99,,,-99.99,,2013-01-24 13:43:00,
2013-01-24 07:53:00,60.0,-99.9,30.35,WSW,258,8.0,10.0,-999,-99.99,,,-99.99,,2013-01-24 13:53:00,
2013-01-24 08:03:00,61.0,-99.9,30.35,West,259,8.0,10.0,-999,-99.99,,,-99.99,,2013-01-24 14:03:00,
2013-01-24 08:13:00,61.0,-99.9,30.35,West,264,7.0,10.0,-999,-99.99,,,-99.99,,2013-01-24 14:13:00,
2013-01-24 08:23:00,61.0,-99.9,30.35,WSW,258,8.0,12.0,-999,-99.99,,,-99.99,,2013-01-24 14:23:00,
2013-01-24 08:33:00,62.0,-99.9,30.35,West,260,6.0,11.0,-999,-99.99,,,-99.99,,2013-01-24 14:33:00,
2013-01-24 08:43:00,62.0,-99.9,30.35,West,259,8.0,11.0,-999,-99.99,,,-99.99,,2013-01-24 14:43:00,
2013-01-24 08:54:00,62.0,-99.9,30.36,West,267,8.0,12.0,-999,-99.99,,,-99.99,,2013-01-24 14:54:00,
2013-01-24 09:04:00,62.0,-99.9,30.36,West,259,6.0,13.0,-999,-99.99,,,-99.99,,2013-01-24 15:04:00,
2013-01-24 09:13:00,62.0,-99.9,30.36,WSW,253,8.0,13.0,-999,-99.99,,,-99.99,,2013-01-24 15:13:00,
2013-01-24 09:23:00,63.0,-99.9,30.37,WSW,247,8.0,11.0,-999,-99.99,,,-99.99,,2013-01-24 15:23:00,
2013-01-24 09:33:00,63.0,-99.9,30.37,WSW,247,8.0,11.0,-999,-99.99,,,-99.99,,2013-01-24 15:33:00,
2013-01-24 09:43:00,63.0,-99.9,30.37,WSW,246,9.0,13.0,-999,-99.99,,,-99.99,,2013-01-24 15:43:00,
2013-01-24 09:53:00,63.0,-99.9,30.37,WSW,237,9.0,13.0,-999,-99.99,,,-99.99,,2013-01-24 15:53:00,
2013-01-24 10:04:00,63.0,-99.9,30.37,WSW,238,9.0,12.0,-999,-99.99,,,-99.99,,2013-01-24 16:04:00,
2013-01-24 10:12:00,62.0,-99.9,30.37,SW,234,10.0,13.0,-999,-99.99,,,-99.99,,2013-01-24 16:12:00,
2013-01-24 10:23:00,62.0,-99.9,30.37,WSW,237,10.0,13.0,-999,-99.99,,,-99.99,,2013-01-24 16:23:00,
2013-01-24 10:33:00,62.0,-99.9,30.37,SW,232,7.0,13.0,-999,-99.99,,,-99.99,,2013-01-24 16:33:00,
2013-01-24 10:43:00,62.0,-99.9,30.37,SW,233,9.0,13.0,-999,-99.99,,,-99.99,,2013-01-24 16:43:00,
2013-01-24 11:03:00,62.0,-99.9,30.37,SW,229,9.0,13.0,-999,-99.99,,,-99.99,,2013-01-24 17:03:00,
2013-01-24 11:12:00,63.0,-99.9,30.37,SW,234,10.0,13.0,-999,-99.99,,,-99.99,,2013-01-24 17:12:00,
2013-01-24 11:22:00,63.0,-99.9,30.37,SW,234,10.0,13.0,-999,-99.99,,,-99.99,,2013-01-24 17:22:00,
2013-01-24 11:33:00,62.0,-99.9,30.36,SW,227,8.0,11.0,-999,-99.99,,,-99.99,,2013-01-24 17:33:00,
2013-01-24 11:43:00,62.0,-99.9,30.36,SW,216,8.0,11.0,-999,-99.99,,,-99.99,,2013-01-24 17:43:00,
2013-01-24 11:53:00,62.0,-99.9,30.35,SW,225,8.0,12.0,-999,-99.99,,,-99.99,,2013-01-24 17:53:00,
2013-01-24 12:03:00,63.0,-99.9,30.35,SW,226,8.0,11.0,-999,-99.99,,,-99.99,,2013-01-24 18:03:00,
2013-01-24 12:13:00,63.0,-99.9,30.35,SW,234,8.0,13.0,-999,-99.99,,,-99.99,,2013-01-24 18:13:00,
2013-01-24 12:23:00,63.0,-99.9,30.34,SW,231,11.0,14.0,-999,-99.99,,,-99.99,,2013-01-24 18:23:00,
2013-01-24 12:33:00,63.0,-99.9,30.33,SW,234,12.0,15.0,-999,-99.99,,,-99.99,,2013-01-24 18:33:00,
2013-01-24 12:43:00,63.0,-99.9,30.33,WSW,238,10.0,14.0,-999,-99.99,,,-99.99,,2013-01-24 18:43:00,
2013-01-24 12:54:00,62.0,-99.9,30.32,WSW,237,11.0,14.0,-999,-99.99,,,-99.99,,2013-01-24 18:54:00,
2013-01-24 13:02:00,63.0,-99.9,30.32,WSW,237,8.0,12.0,-999,-99.99,,,-99.99,,2013-01-24 19:02:00,
2013-01-24 13:13:00,63.0,-99.9,30.32,WSW,241,8.0,13.0,-999,-99.99,,,-99.99,,2013-01-24 19:13:00,
2013-01-24 13:22:00,63.0,-99.9,30.31,SW,236,7.0,12.0,-999,-99.99,,,-99.99,,2013-01-24 19:22:00,
2013-01-24 13:33:00,63.0,-99.9,30.31,SW,236,9.0,13.0,-999,-99.99,,,-99.99,,2013-01-24 19:33:00,
2013-01-24 13:42:00,63.0,-99.9,30.31,SW,231,9.0,13.0,-999,-99.99,,,-99.99,,2013-01-24 19:42:00,
2013-01-24 13:53:00,63.0,-99.9,30.31,SW,236,10.0,14.0,-999,-99.99,,,-99.99,,2013-01-24 19:53:00,
2013-01-24 14:03:00,63.0,-99.9,30.30,SW,226,6.0,11.0,-999,-99.99,,,-99.99,,2013-01-24 20:03:00,
2013-01-24 14:12:00,62.0,-99.9,30.29,SW,223,9.0,12.0,-999,-99.99,,,-99.99,,2013-01-24 20:12:00,
2013-01-24 14:23:00,62.0,-99.9,30.29,SW,223,10.0,12.0,-999,-99.99,,,-99.99,,2013-01-24 20:23:00,
2013-01-24 14:33:00,62.0,-99.9,30.29,SW,222,10.0,11.0,-999,-99.99,,,-99.99,,2013-01-24 20:33:00,
2013-01-24 14:43:00,62.0,-99.9,30.29,SW,222,9.0,11.0,-999,-99.99,,,-99.99,,2013-01-24 20:43:00,
2013-01-24 14:53:00,62.0,-99.9,30.28,SW,221,8.0,11.0,-999,-99.99,,,-99.99,,2013-01-24 20:53:00,
2013-01-24 15:03:00,62.0,-99.9,30.28,SW,226,9.0,11.0,-999,-99.99,,,-99.99,,2013-01-24 21:03:00,
2013-01-24 15:13:00,62.0,-99.9,30.28,SW,225,9.0,11.0,-999,-99.99,,,-99.99,,2013-01-24 21:13:00,
2013-01-24 15:23:00,63.0,-99.9,30.28,SW,222,6.0,9.0,-999,-99.99,,,-99.99,,2013-01-24 21:23:00,
2013-01-24 15:33:00,62.0,-99.9,30.28,SW,227,9.0,11.0,-999,-99.99,,,-99.99,,2013-01-24 21:33:00,
2013-01-24 15:44:00,62.0,-99.9,30.27,SW,225,8.0,11.0,-999,-99.99,,,-99.99,,2013-01-24 21:44:00,
2013-01-24 15:53:00,62.0,-99.9,30.27,SW,223,9.0,12.0,-999,-99.99,,,-99.99,,2013-01-24 21:53:00,
2013-01-24 16:03:00,63.0,-99.9,30.27,SW,224,6.0,9.0,-999,-99.99,,,-99.99,,2013-01-24 22:03:00,
2013-01-24 16:12:00,63.0,-99.9,30.27,SW,220,5.0,9.0,-999,-99.99,,,-99.99,,2013-01-24 22:12:00,
2013-01-24 16:23:00,63.0,-99.9,30.27,SW,218,7.0,8.0,-999,-99.99,,,-99.99,,2013-01-24 22:23:00,
2013-01-24 16:33:00,62.0,-99.9,30.27,SW,223,7.0,10.0,-999,-99.99,,,-99.99,,2013-01-24 22:33:00,
2013-01-24 16:43:00,62.0,-99.9,30.27,SW,220,6.0,9.0,-999,-99.99,,,-99.99,,2013-01-24 22:43:00,
2013-01-24 16:53:00,62.0,-99.9,30.27,SW,215,6.0,8.0,-999,-99.99,,,-99.99,,2013-01-24 22:53:00,
2013-01-24 17:03:00,62.0,-99.9,30.27,SW,220,5.0,10.0,-999,-99.99,,,-99.99,,2013-01-24 23:03:00,
2013-01-24 17:13:00,62.0,-99.9,30.27,SW,226,8.0,10.0,-999,-99.99,,,-99.99,,2013-01-24 23:13:00,
2013-01-24 17:22:00,61.0,-99.9,30.27,SW,223,7.0,10.0,-999,-99.99,,,-99.99,,2013-01-24 23:22:00,
2013-01-24 17:32:00,61.0,-99.9,30.27,SW,227,6.0,9.0,-999,-99.99,,,-99.99,,2013-01-24 23:32:00,
2013-01-24 17:43:00,61.0,-99.9,30.28,SW,222,5.0,7.0,-999,-99.99,,,-99.99,,2013-01-24 23:43:00,
2013-01-24 17:52:00,61.0,-99.9,30.28,SW,229,4.0,10.0,-999,-99.99,,,-99.99,,2013-01-24 23:52:00,
2013-01-24 18:02:00,61.0,-99.9,30.28,SW,228,7.0,9.0,-999,-99.99,,,-99.99,,2013-01-25 00:02:00,
2013-01-24 18:12:00,61.0,-99.9,30.28,SW,232,7.0,10.0,-999,-99.99,,,-99.99,,2013-01-25 00:12:00,
2013-01-24 18:22:00,61.0,-99.9,30.28,SW,232,6.0,9.0,-999,-99.99,,,-99.99,,2013-01-25 00:22:00,
2013-01-24 18:32:00,60.0,-99.9,30.29,WSW,239,5.0,8.0,-999,-99.99,,,-99.99,,2013-01-25 00:32:00,
2013-01-24 18:42:00,60.0,-99.9,30.28,WSW,238,6.0,9.0,-999,-99.99,,,-99.99,,2013-01-25 00:42:00,
2013-01-24 18:53:00,60.0,-99.9,30.28,WSW,237,7.0,9.0,-999,-99.99,,,-99.99,,2013-01-25 00:53:00,
2013-01-24 19:02:00,60.0,-99.9,30.29,WSW,239,5.0,8.0,-999,-99.99,,,-99.99,,2013-01-25 01:02:00,
2013-01-24 19:13:00,60.0,-99.9,30.29,WSW,237,5.0,8.0,-999,-99.99,,,-99.99,,2013-01-25 01:13:00,
2013-01-24 19:22:00,60.0,-99.9,30.29,WSW,242,6.0,7.0,-999,-99.99,,,-99.99,,2013-01-25 01:22:00,
2013-01-24 19:32:00,61.0,-99.9,30.30,WSW,245,6.0,9.0,-999,-99.99,,,-99.99,,2013-01-25 01:32:00,
2013-01-24 19:43:00,61.0,-99.9,30.30,WSW,245,6.0,8.0,-999,-99.99,,,-99.99,,2013-01-25 01:43:00,
2013-01-24 19:52:00,61.0,-99.9,30.30,WSW,242,6.0,9.0,-999,-99.99,,,-99.99,,2013-01-25 01:52:00,
2013-01-24 20:03:00,61.0,-99.9,30.30,WSW,241,6.0,8.0,-999,-99.99,,,-99.99,,2013-01-25 02:03:00,
2013-01-24 20:12:00,61.0,-99.9,30.30,SW,232,6.0,8.0,-999,-99.99,,,-99.99,,2013-01-25 02:12:00,
2013-01-24 20:22:00,61.0,-99.9,30.30,WSW,240,5.0,7.0,-999,-99.99,,,-99.99,,2013-01-25 02:22:00,
2013-01-24 20:33:00,61.0,-99.9,30.30,SW,231,5.0,7.0,-999,-99.99,,,-99.99,,2013-01-25 02:33:00,
2013-01-24 20:43:00,61.0,-99.9,30.30,SW,236,5.0,7.0,-999,-99.99,,,-99.99,,2013-01-25 02:43:00,
2013-01-24 20:53:00,60.0,-99.9,30.30,WSW,240,6.0,9.0,-999,-99.99,,,-99.99,,2013-01-25 02:53:00,
2013-01-24 21:02:00,60.0,-99.9,30.30,SW,234,6.0,9.0,-999,-99.99,,,-99.99,,2013-01-25 03:02:00,
2013-01-24 21:12:00,60.0,-99.9,30.30,WSW,242,6.0,9.0,-999,-99.99,,,-99.99,,2013-01-25 03:12:00,
2013-01-24 21:22:00,60.0,-99.9,30.30,SW,232,6.0,10.0,-999,-99.99,,,-99.99,,2013-01-25 03:22:00,
2013-01-24 21:33:00,60.0,-99.9,30.30,SW,232,6.0,9.0,-999,-99.99,,,-99.99,,2013-01-25 03:33:00,
2013-01-24 21:42:00,60.0,-99.9,30.29,SW,233,6.0,9.0,-999,-99.99,,,-99.99,,2013-01-25 03:42:00,
2013-01-24 21:53:00,61.0,-99.9,30.30,WSW,248,6.0,10.0,-999,-99.99,,,-99.99,,2013-01-25 03:53:00,
2013-01-24 22:02:00,61.0,-99.9,30.30,SW,233,6.0,11.0,-999,-99.99,,,-99.99,,2013-01-25 04:02:00,
2013-01-24 22:12:00,60.0,-99.9,30.30,SW,234,5.0,9.0,-999,-99.99,,,-99.99,,2013-01-25 04:12:00,
2013-01-24 22:22:00,60.0,-99.9,30.30,WSW,244,5.0,8.0,-999,-99.99,,,-99.99,,2013-01-25 04:22:00,
2013-01-24 22:32:00,60.0,-99.9,30.30,SW,234,5.0,7.0,-999,-99.99,,,-99.99,,2013-01-25 04:32:00,
2013-01-24 22:42:00,60.0,-99.9,30.30,SW,232,6.0,9.0,-999,-99.99,,,-99.99,,2013-01-25 04:42:00,
2013-01-24 22:52:00,60.0,-99.9,30.30,SW,217,4.0,10.0,-999,-99.99,,,-99.99,,2013-01-25 04:52:00,
2013-01-24 23:03:00,60.0,-99.9,30.30,SW,230,3.0,5.0,-999,-99.99,,,-99.99,,2013-01-25 05:03:00,
2013-01-24 23:12:00,60.0,-99.9,30.30,WSW,252,4.0,5.0,-999,-99.99,,,-99.99,,2013-01-25 05:12:00,
2013-01-24 23:22:00,60.0,-99.9,30.30,WSW,247,5.0,7.0,-999,-99.99,,,-99.99,,2013-01-25 05:22:00,
2013-01-24 23:32:00,60.0,-99.9,30.30,SW,230,5.0,8.0,-999,-99.99,,,-99.99,,2013-01-25 05:32:00,
2013-01-24 23:43:00,60.0,-99.9,30.30,WSW,242,4.0,7.0,-999,-99.99,,,-99.99,,2013-01-25 05:43:00,
2013-01-24 23:52:00,60.0,-99.9,30.29,WSW,238,5.0,7.0,-999,-99.99,,,-99.99,,2013-01-25 05:52:00,